, LA

(GMT )
Sabine 13B

Weather History for KVBS - January, 2014

Change the Weather History Date:

Sunday, January 5, 2014

  Actual Average Record
Temperature  
Mean Temperature 52 °F -  
Max Temperature 66 °F - - ()
Min Temperature 37 °F - - ()
Degree Days  
Heating Degree Days 14    
Growing Degree Days 2 (Base 50)    
Moisture  
Dew Point 50 °F    
Average Humidity 79    
Maximum Humidity 94    
Minimum Humidity 53    
Precipitation  
Precipitation 0.00 in - - ()
Sea Level Pressure  
Sea Level Pressure 30.00 in    
Wind  
Wind Speed 11 mph (NNW)    
Max Wind Speed 34 mph    
Max Gust Speed 43 mph    
Visibility 10 miles    
Events      
T = Trace of Precipitation, MM = Missing Value Source: NWS Daily Summary

Daily Weather History Graph

Daily Weather History Graph

Search for Another Location

Airport or City:

Trip Planner

Search our weather history database for the weather conditions in past years. The results will help you decide how hot, cold, wet, or windy it might be!

Date:

Astronomy

Jan. 05, 2014 Rise Set
Actual Time 7:10 AM CST 5:30 PM CST
Civil Twilight 6:44 AM CST 5:56 PM CST
Nautical Twilight 6:14 AM CST 6:25 PM CST
Astronomical Twilight 5:45 AM CST 6:54 PM CST
Moon 10:15 AM CST (1/5) 10:32 PM CST (1/5)
Length of Visible Light 11h 12m
Length of Day
10h 20m
Waxing Crescent, 25% of the Moon is Illuminated
Jan 5
Waxing Crescent
Jan 7
First Quarter
Jan 15
Full
Jan 23
Last Quarter
Jan 30
New

Hourly Weather History & Observations

Time (CST) Temp. Windchill Dew Point Humidity Pressure Visibility Wind Dir Wind Speed Gust Speed Precip Events Conditions
12:15 AM 60.8 °F - 57.2 °F 88% 29.92 in 10.0 mi SSW 9.2 mph - N/A   Overcast
12:35 AM 62.6 °F - 57.2 °F 82% 29.92 in 10.0 mi Variable 4.6 mph 12.7 mph N/A   Overcast
12:55 AM 62.6 °F - 57.2 °F 82% 29.91 in 10.0 mi Variable 5.8 mph 12.7 mph N/A   Overcast
1:15 AM 62.6 °F - 57.2 °F 82% 29.91 in 10.0 mi Variable 5.8 mph 12.7 mph N/A   Overcast
1:35 AM 62.6 °F - 57.2 °F 82% 29.91 in 10.0 mi SW 8.1 mph 17.3 mph N/A   Overcast
1:55 AM 62.6 °F - 57.2 °F 82% 29.90 in 10.0 mi SW 9.2 mph 18.4 mph N/A   Overcast
2:15 AM 62.6 °F - 57.2 °F 82% 29.90 in 10.0 mi SSW 9.2 mph - N/A   Overcast
2:35 AM 62.6 °F - 57.2 °F 82% 29.89 in 10.0 mi SSW 8.1 mph 16.1 mph N/A   Overcast
2:55 AM 62.6 °F - 59.0 °F 88% 29.90 in 10.0 mi Calm Calm - N/A   Overcast
3:15 AM 62.6 °F - 59.0 °F 88% 29.90 in 10.0 mi Variable 5.8 mph - N/A   Overcast
3:35 AM 62.6 °F - 59.0 °F 88% 29.90 in 10.0 mi Variable 4.6 mph 13.8 mph N/A   Overcast
3:55 AM 62.6 °F - 59.0 °F 88% 29.89 in 10.0 mi Calm Calm - N/A   Overcast
4:15 AM 62.6 °F - 59.0 °F 88% 29.89 in 10.0 mi Calm Calm - N/A   Overcast
4:35 AM 62.6 °F - 59.0 °F 88% 29.89 in 10.0 mi Calm Calm - N/A   Overcast
4:55 AM 62.6 °F - 59.0 °F 88% 29.88 in - Calm Calm - N/A   Mostly Cloudy
5:15 AM 64.4 °F - 60.8 °F 88% 29.88 in 10.0 mi Calm Calm - N/A   Overcast
5:35 AM 62.6 °F - 59.0 °F 88% 29.88 in 10.0 mi Calm Calm - N/A   Overcast
5:55 AM 62.6 °F - 59.0 °F 88% 29.88 in 10.0 mi Variable 5.8 mph 12.7 mph N/A   Overcast
6:15 AM 62.6 °F - 60.8 °F 94% 29.87 in 10.0 mi Variable 5.8 mph 12.7 mph N/A   Overcast
6:35 AM 62.6 °F - 60.8 °F 94% 29.87 in 10.0 mi Calm Calm - N/A   Mostly Cloudy
6:55 AM 62.6 °F - 60.8 °F 94% 29.88 in 10.0 mi Calm Calm - N/A   Overcast
7:15 AM 62.6 °F - 60.8 °F 94% 29.88 in 10.0 mi Variable 3.5 mph - N/A   Overcast
7:35 AM 62.6 °F - 60.8 °F 94% 29.89 in 10.0 mi Variable 5.8 mph - N/A   Overcast
7:55 AM 62.6 °F - 60.8 °F 94% 29.89 in 10.0 mi Calm Calm 11.5 mph N/A   Overcast
8:15 AM 62.6 °F - 60.8 °F 94% 29.89 in 10.0 mi Variable 3.5 mph - N/A   Overcast
8:35 AM 62.6 °F - 60.8 °F 94% 29.91 in 10.0 mi Variable 4.6 mph - N/A   Overcast
8:55 AM 64.4 °F - 60.8 °F 88% 29.91 in 10.0 mi Variable 3.5 mph - N/A   Overcast
9:15 AM 64.4 °F - 60.8 °F 88% 29.92 in 10.0 mi SW 8.1 mph - N/A   Overcast
9:35 AM 64.4 °F - 60.8 °F 88% 29.92 in 10.0 mi SW 9.2 mph - N/A   Overcast
9:55 AM 64.4 °F - 60.8 °F 88% 29.93 in 10.0 mi WSW 9.2 mph - N/A   Overcast
10:15 AM 64.4 °F - 60.8 °F 88% 29.92 in 10.0 mi SW 13.8 mph - N/A   Overcast
10:35 AM 64.4 °F - 60.8 °F 88% 29.92 in 10.0 mi WSW 12.7 mph - N/A   Overcast
10:55 AM 64.4 °F - 60.8 °F 88% 29.91 in 10.0 mi SW 13.8 mph 20.7 mph N/A   Mostly Cloudy
11:15 AM 66.2 °F - 60.8 °F 83% 29.90 in 10.0 mi WSW 13.8 mph 19.6 mph N/A   Scattered Clouds
11:35 AM 64.4 °F - 60.8 °F 88% 29.90 in 10.0 mi WSW 12.7 mph 18.4 mph N/A   Mostly Cloudy
11:55 AM 62.6 °F - 59.0 °F 88% 29.91 in 4.0 mi WNW 23.0 mph - N/A   Overcast
12:15 PM 62.6 °F - 60.8 °F 94% 29.90 in 4.0 mi NW 24.2 mph - N/A   Overcast
12:35 PM 55.4 °F - 53.6 °F 94% 29.90 in 10.0 mi North 33.4 mph - N/A   Overcast
5:55 PM 50.0 °F - 35.6 °F 58% 30.06 in 10.0 mi North 34.5 mph 42.6 mph N/A   Unknown
6:15 PM 48.2 °F - 35.6 °F 62% 30.08 in 10.0 mi NNE 32.2 mph - N/A   Clear
6:35 PM 48.2 °F - 37.4 °F 66% 30.10 in 10.0 mi NNE 29.9 mph 36.8 mph N/A   Partly Cloudy
6:55 PM 48.2 °F - 35.6 °F 62% 30.11 in 10.0 mi NNE 32.2 mph - N/A   Scattered Clouds
7:15 PM 46.4 °F 36.7 °F 33.8 °F 62% 30.13 in 10.0 mi NNE 33.4 mph 40.3 mph N/A   Partly Cloudy
7:35 PM 46.4 °F 36.9 °F 32.0 °F 57% 30.14 in 10.0 mi NNE 32.2 mph 39.1 mph N/A   Clear
7:55 PM 44.6 °F 34.2 °F 30.2 °F 57% 30.16 in 10.0 mi NNE 33.4 mph - N/A   Clear
8:15 PM 44.6 °F 34.1 °F 28.4 °F 53% 30.17 in 10.0 mi NNE 34.5 mph 42.6 mph N/A   Clear
8:35 PM 44.6 °F 34.1 °F 30.2 °F 57% 30.19 in 10.0 mi NNE 34.5 mph - N/A   Clear
8:55 PM 42.8 °F 31.9 °F 28.4 °F 57% 30.20 in 10.0 mi NNE 32.2 mph 39.1 mph N/A   Partly Cloudy
9:15 PM 42.8 °F 32.3 °F 28.4 °F 57% 30.21 in 10.0 mi NNE 29.9 mph 39.1 mph N/A   Clear
9:35 PM 41.0 °F 29.3 °F 28.4 °F 61% 30.22 in 10.0 mi NNE 33.4 mph 39.1 mph N/A   Partly Cloudy
9:55 PM 41.0 °F 29.5 °F 26.6 °F 57% 30.23 in 10.0 mi NNE 32.2 mph 41.4 mph N/A   Partly Cloudy
10:15 PM 41.0 °F 29.7 °F 26.6 °F 57% 30.24 in 10.0 mi NNE 31.1 mph 38.0 mph N/A   Clear
10:35 PM 39.2 °F 27.4 °F 26.6 °F 61% 30.25 in 10.0 mi NNE 29.9 mph 36.8 mph N/A   Clear
10:55 PM 39.2 °F 27.6 °F 26.6 °F 61% 30.27 in 10.0 mi NNE 28.8 mph 36.8 mph N/A   Partly Cloudy
11:15 PM 39.2 °F 27.6 °F 26.6 °F 61% 30.27 in 10.0 mi NE 28.8 mph 36.8 mph N/A   Partly Cloudy
11:35 PM 37.4 °F 24.6 °F 24.8 °F 60% 30.27 in 10.0 mi NNE 32.2 mph 41.4 mph N/A   Clear
11:55 PM 37.4 °F 24.6 °F 24.8 °F 60% 30.28 in 10.0 mi NE 32.2 mph - N/A   Clear